Location: Beckers Corners
(42.5484°N, 73.8110°W)
Time: 10:29:12
(UTC+00:00)

Tiangong - Visible Passes

Search period start: 10 October 2024 00:00
Search period end: 20 October 2024 00:00
Orbit: 373 x 377 km, 41.5° (Epoch: 09 October)

Date Brightness Start Highest point End Pass type
(mag) Time Alt. Az. Time Alt. Az. Time Alt. Az.
16 Oct 0.7 10:21:12 10° S 10:22:56 14° SSE 10:24:40 10° ESE visible
18 Oct 0.1 09:50:47 12° SSW 09:52:46 20° SSE 09:55:09 10° ESE visible
19 Oct 1.1 08:50:46 10° SE 08:50:46 10° SE 08:50:55 10° ESE visible
19 Oct -1.2 10:22:45 10° WSW 10:25:42 43° SSE 10:28:39 10° E visible
